Weather History for Ann Arbor, MI

Change the Weather History Date:

Saturday, October 19, 2013

  Actual Average Record
Temperature  
Mean Temperature 42 °F -  
Max Temperature 48 °F 57 °F 73 °F (2007)
Min Temperature 35 °F 35 °F 25 °F (2014)
Degree Days  
Heating Degree Days 24    
Moisture  
Dew Point 40 °F    
Average Humidity 88    
Maximum Humidity 97    
Minimum Humidity 76    
Precipitation  
Precipitation 0.16 in - - ()
Sea Level Pressure  
Sea Level Pressure 29.82 in    
Wind  
Wind Speed 6 mph (WSW)    
Max Wind Speed 14 mph    
Max Gust Speed 22 mph    
Visibility 8 miles    
Events Rain    
Averages and records for this station are not official NWS values.
T = Trace of Precipitation, MM = Missing Value Source: NWS Daily Summary

Daily Weather History Graph

Daily Weather History Graph

Search for Another Location

Airport:

Trip Planner

Search our weather history database for the weather conditions in past years. The results will help you decide how hot, cold, wet, or windy it might be!

Date:

Astronomy

Oct. 19, 2013 Rise Set
Actual Time 7:52 AM EDT 6:46 PM EDT
Civil Twilight 7:24 AM EDT 7:14 PM EDT
Nautical Twilight 6:51 AM EDT 7:47 PM EDT
Astronomical Twilight 6:19 AM EDT 8:19 PM EDT
Moon 7:12 PM EDT (10/19) 8:30 AM EDT (10/19)
Length of Visible Light 11h 50m
Length of Day
10h 53m
Waxing Gibbous, 99% of the Moon is Illuminated
Oct 19
Waxing Gibbous
Oct 26
Last Quarter
Nov 3
New
Nov 10
First Quarter
Nov 17
Full

Hourly Weather History & Observations

Time (EDT) Temp. Windchill Dew Point Humidity Pressure Visibility Wind Dir Wind Speed Gust Speed Precip Events Conditions
12:53 AM 41.0 °F 37.1 °F 37.9 °F 89% 29.91 in 10.0 mi WSW 5.8 mph - N/A   Clear
1:53 AM 39.0 °F 35.7 °F 37.0 °F 93% 29.89 in 8.0 mi SW 4.6 mph - N/A   Clear
2:53 AM 39.0 °F 36.8 °F 37.0 °F 93% 29.88 in 6.0 mi SW 3.5 mph - N/A   Clear
3:53 AM 37.9 °F - 37.0 °F 97% 29.88 in 4.0 mi Calm Calm - N/A   Clear
4:53 AM 39.9 °F - 37.9 °F 93% 29.87 in 6.0 mi Calm Calm - N/A   Partly Cloudy
5:53 AM 41.0 °F - 39.0 °F 93% 29.85 in 6.0 mi Calm Calm - N/A   Overcast
6:53 AM 42.1 °F - 39.9 °F 92% 29.84 in 5.0 mi Calm Calm - 0.00 in Rain Light Rain
7:53 AM 42.1 °F 39.2 °F 39.9 °F 92% 29.83 in 4.0 mi SW 4.6 mph - 0.02 in Rain Light Rain
8:31 AM 42.8 °F 41.1 °F 41.0 °F 93% 29.83 in 2.5 mi SW 3.5 mph - 0.02 in Rain Light Rain
8:53 AM 43.0 °F 39.5 °F 41.0 °F 93% 29.83 in 3.0 mi West 5.8 mph - 0.03 in Rain Light Rain
9:02 AM 42.8 °F 38.6 °F 41.0 °F 93% 29.83 in 5.0 mi West 6.9 mph - 0.00 in Rain Light Rain
9:53 AM 44.1 °F 39.0 °F 41.0 °F 89% 29.83 in 8.0 mi West 9.2 mph - 0.02 in Rain Light Rain
10:53 AM 44.1 °F 39.5 °F 41.0 °F 89% 29.82 in 10.0 mi West 8.1 mph - 0.02 in Rain Light Rain
11:04 AM 44.6 °F 39.2 °F 41.0 °F 87% 29.81 in 9.0 mi West 10.4 mph - 0.00 in Rain Light Rain
11:16 AM 44.6 °F 40.2 °F 41.0 °F 87% 29.81 in 8.0 mi West 8.1 mph - 0.01 in Rain Light Rain
11:26 AM 44.6 °F 40.7 °F 41.0 °F 87% 29.80 in 7.0 mi WSW 6.9 mph - 0.01 in Rain Light Rain
11:43 AM 44.6 °F 40.7 °F 41.0 °F 87% 29.80 in 7.0 mi WSW 6.9 mph - 0.02 in Rain Light Rain
11:50 AM 44.6 °F 40.7 °F 41.0 °F 87% 29.80 in 7.0 mi West 6.9 mph - 0.02 in Rain Light Rain
11:53 AM 44.1 °F 40.1 °F 41.0 °F 89% 29.81 in 7.0 mi WSW 6.9 mph - 0.03 in Rain Light Rain
12:30 PM 44.6 °F 40.2 °F 41.0 °F 87% 29.79 in 10.0 mi West 8.1 mph - 0.01 in Rain Light Rain
12:51 PM 44.6 °F 40.7 °F 41.0 °F 87% 29.78 in 10.0 mi West 6.9 mph - 0.01 in Rain Light Rain
12:53 PM 45.0 °F 39.7 °F 42.1 °F 90% 29.80 in 10.0 mi West 10.4 mph - 0.01 in Rain Light Rain
1:39 PM 46.4 °F 40.7 °F 42.8 °F 87% 29.77 in 10.0 mi WSW 12.7 mph - 0.01 in Rain Light Rain
1:53 PM 45.0 °F 40.1 °F 42.1 °F 90% 29.78 in 10.0 mi WSW 9.2 mph - 0.01 in Rain Light Rain
2:33 PM 48.2 °F - 44.6 °F 87% 29.75 in 10.0 mi West 10.4 mph - 0.00 in   Mostly Cloudy
2:53 PM 48.9 °F - 43.0 °F 80% 29.77 in 10.0 mi West 13.8 mph - 0.00 in   Overcast
3:13 PM 42.8 °F 36.2 °F 39.2 °F 87% 29.76 in 4.0 mi NNW 12.7 mph 21.9 mph 0.01 in Rain Light Rain
3:34 PM 44.6 °F 40.7 °F 41.0 °F 87% 29.76 in 10.0 mi WNW 6.9 mph - 0.02 in   Mostly Cloudy
3:53 PM 46.0 °F 41.4 °F 41.0 °F 83% 29.78 in 10.0 mi West 9.2 mph - 0.02 in   Mostly Cloudy
4:53 PM 44.1 °F 40.1 °F 39.0 °F 82% 29.79 in 10.0 mi West 6.9 mph - N/A   Overcast
5:53 PM 46.0 °F 42.5 °F 39.0 °F 76% 29.79 in 10.0 mi SW 6.9 mph - N/A   Scattered Clouds
6:53 PM 42.1 °F 37.7 °F 36.0 °F 79% 29.81 in 10.0 mi WSW 6.9 mph - N/A   Partly Cloudy
7:53 PM 39.0 °F 35.7 °F 35.1 °F 86% 29.83 in 10.0 mi SW 4.6 mph - N/A   Scattered Clouds
8:53 PM 43.0 °F 40.3 °F 37.0 °F 80% 29.85 in 10.0 mi WNW 4.6 mph - N/A   Overcast
9:53 PM 37.9 °F - 35.1 °F 89% 29.86 in 10.0 mi Calm Calm - N/A   Clear
10:53 PM 35.1 °F - 33.1 °F 92% 29.86 in 5.0 mi Calm Calm - N/A   Partly Cloudy
11:53 PM 37.9 °F 33.5 °F 36.0 °F 93% 29.88 in 10.0 mi West 5.8 mph - N/A   Overcast